GW0203 Weather Reports


time (UTC)temp
F
wind
direction
speed
knots
gust
knots
rain 1hr
in
rain 24hr
in
rain mn
in
humidity
%
barometer
mb
20260509003306 54 343 2.6 6.1 0.00 0.00 0.00 50 1011.1
20260509001803 54 54 0.0 3.5 0.00 0.00 0.00 51 1010.7
20260509000300 55 288 2.6 10.4 0.00 0.00 0.00 48 1010.3
20260508234756 55 308 3.5 4.3 0.00 0.00 0.00 48 1009.9
20260508233256 56 304 4.3 12.2 0.00 0.00 0.00 46 1009.8
20260508231753 58 331 4.3 9.6 0.00 0.00 0.00 47 1009.6
20260508230254 59 321 2.6 6.1 0.00 0.00 0.00 47 1009.5
20260508224751 60 324 2.6 4.3 0.00 0.00 0.00 46 1009.3
20260508223249 59 345 0.9 13.0 0.00 0.00 0.00 46 1009.4
20260508221745 60 346 6.1 8.7 0.00 0.00 0.00 46 1009.3
20260508220246 60 353 5.2 13.0 0.00 0.00 0.00 45 1009.3
20260508214742 61 343 3.5 10.4 0.00 0.00 0.00 45 1009.2
20260508213238 60 0 0.9 11.3 0.00 0.00 0.00 45 1009.0
20260508211738 59 351 5.2 13.0 0.00 0.00 0.00 47 1009.2
20260508210235 60 290 3.5 11.3 0.00 0.00 0.00 47 1009.0
20260508204730 60 349 6.1 14.8 0.00 0.00 0.00 47 1008.9
20260508203225 59 346 1.7 6.1 0.00 0.00 0.00 52 1008.8
20260508201721 59 240 4.3 8.7 0.00 0.00 0.00 51 1008.7
20260508200216 59 332 3.5 13.0 0.00 0.00 0.00 51 1008.7
20260508194712 55 254 7.8 17.4 0.00 0.00 0.00 56 1009.0
20260508193208 57 329 8.7 8.7 0.00 0.00 0.00 50 1008.7
20260508191705 58 253 7.0 13.0 0.00 0.00 0.00 47 1008.4
20260508190200 59 335 7.0 22.6 0.00 0.00 0.00 41 1008.1
20260508184658 59 317 3.5 8.7 0.00 0.00 0.00 49 1007.9
20260508183153 60 194 2.6 9.6 0.00 0.00 0.00 44 1008.0
20260508181653 62 156 1.7 3.5 0.00 0.00 0.00 39 1008.1
20260508180150 62 350 1.7 9.6 0.00 0.00 0.00 36 1007.8
20260508174647 60 119 2.6 5.2 0.00 0.00 0.00 49 1008.3
20260508173142 58 239 4.3 6.1 0.00 0.00 0.00 51 1008.4
20260508171639 62 186 2.6 3.5 0.00 0.00 0.00 43 1008.5
20260508170136 61 277 0.9 2.6 0.00 0.00 0.00 43 1008.4
20260508164632 61 315 2.6 6.1 0.00 0.00 0.00 43 1008.6
20260508163129 62 270 1.7 8.7 0.00 0.00 0.00 40 1008.7
20260508161625 61 318 6.1 12.2 0.00 0.00 0.00 40 1008.7
20260508160124 60 314 3.5 7.0 0.00 0.00 0.00 41 1009.0
20260508154621 60 221 3.5 7.0 0.00 0.00 0.00 39 1009.3
20260508153117 58 328 8.7 11.3 0.00 0.00 0.00 43 1009.5
20260508151612 59 223 4.3 11.3 0.00 0.00 0.00 40 1009.3
20260508150108 59 219 5.2 10.4 0.00 0.00 0.00 41 1009.5
20260508144605 57 299 1.7 11.3 0.00 0.00 0.00 41 1009.6
20260508143102 57 318 2.6 15.6 0.00 0.00 0.00 42 1009.5
20260508141558 56 305 3.5 12.2 0.00 0.00 0.00 42 1009.5
20260508140055 56 338 2.6 7.0 0.00 0.00 0.00 44 1009.6
20260508134555 54 2 3.5 7.8 0.00 0.00 0.00 45 1009.9
20260508133052 53 319 6.1 9.6 0.00 0.00 0.00 45 1009.9
20260508131548 53 356 2.6 12.2 0.00 0.00 0.00 45 1010.0
20260508130044 53 359 4.3 7.8 0.00 0.00 0.00 49 1010.1
20260508124542 51 338 4.3 7.0 0.00 0.00 0.00 52 1009.9
20260508123038 50 346 2.6 4.3 0.00 0.00 0.00 56 1010.0
20260508121536 49 340 2.6 7.0 0.00 0.00 0.00 56 1010.0
20260508120035 50 249 0.9 6.1 0.00 0.00 0.00 55 1009.9
20260508114531 50 0 1.7 4.3 0.00 0.00 0.00 58 1009.8
20260508113028 48 350 0.0 2.6 0.00 0.00 0.00 56 1009.9
20260508111524 47 348 2.6 3.5 0.00 0.00 0.00 57 1009.8
20260508110020 47 324 1.7 2.6 0.00 0.00 0.00 60 1009.7
20260508104517 47 356 1.7 2.6 0.00 0.00 0.00 58 1009.6
20260508103013 46 332 1.7 4.3 0.00 0.00 0.00 59 1009.8
20260508101511 46 339 2.6 3.5 0.00 0.00 0.00 57 1009.1
20260508100009 46 291 0.9 3.5 0.00 0.00 0.00 56 1009.0
20260508094506 46 319 1.7 2.6 0.00 0.00 0.00 58 1009.0
20260508093003 45 300 0.0 3.5 0.00 0.00 0.00 59 1009.1
20260508091501 46 319 1.7 4.3 0.00 0.00 0.00 57 1008.6
20260508085958 45 325 0.9 3.5 0.00 0.00 0.00 58 1008.7
20260508084454 45 11 0.9 3.5 0.00 0.00 0.00 58 1008.7
20260508082950 45 349 0.9 4.3 0.00 0.00 0.00 59 1008.6
20260508081447 46 318 2.6 2.6 0.00 0.00 0.00 57 1008.3
20260508075944 46 340 2.6 5.2 0.00 0.00 0.00 55 1008.2
20260508074442 46 332 3.5 4.3 0.00 0.00 0.00 55 1007.9
20260508072939 47 328 2.6 3.5 0.00 0.00 0.00 54 1007.3
20260508071437 47 337 0.9 4.3 0.00 0.00 0.00 53 1007.5
20260508065935 47 212 0.9 2.6 0.00 0.00 0.00 52 1007.4
20260508064433 48 15 0.0 4.3 0.00 0.00 0.00 51 1007.3
20260508062931 49 359 4.3 5.2 0.00 0.00 0.00 50 1006.8
20260508061429 49 24 0.0 3.5 0.00 0.00 0.00 50 1006.9
20260508055925 49 342 2.6 4.3 0.00 0.00 0.00 50 1007.1
20260508054422 50 346 3.5 5.2 0.00 0.00 0.00 49 1006.8
20260508052919 50 331 3.5 3.5 0.00 0.00 0.00 48 1007.1
20260508051414 51 351 6.1 7.8 0.00 0.00 0.00 46 1007.0
20260508045909 52 319 7.8 10.4 0.00 0.00 0.00 44 1007.1
20260508044407 52 326 3.5 5.2 0.00 0.00 0.00 45 1007.3
20260508042902 52 0 1.7 8.7 0.00 0.00 0.00 44 1007.2
20260508041359 53 324 7.8 10.4 0.00 0.00 0.00 43 1007.2
20260508035856 53 32 3.5 8.7 0.00 0.31 0.31 43 1007.1
20260508034353 53 351 4.3 7.0 0.00 0.31 0.31 42 1007.1
20260508032851 53 310 10.4 10.4 0.00 0.31 0.31 42 1007.3
20260508031348 53 357 2.6 5.2 0.00 0.31 0.31 43 1007.3
20260508025844 53 299 4.3 9.6 0.00 0.31 0.31 42 1007.2
20260508024340 54 302 5.2 8.7 0.00 0.31 0.31 42 1007.5
20260508022836 53 334 7.0 11.3 0.00 0.31 0.31 42 1007.4
20260508021331 54 315 4.3 7.0 0.00 0.31 0.31 42 1007.5
20260508015828 54 322 0.0 13.0 0.00 0.31 0.31 41 1007.6
20260508014325 55 289 4.3 9.6 0.00 0.31 0.31 42 1007.6
20260508012825 55 19 1.7 6.1 0.00 0.31 0.31 41 1007.4
20260508011323 55 328 2.6 10.4 0.00 0.31 0.31 43 1007.4
20260508005821 55 335 4.3 7.0 0.00 0.31 0.31 42 1007.1